"TOA5","AWS1","CR1000","7964","CR1000.Std.14","CPU:AWS1_114.CR1","64363","TBL110"
"TIMESTAMP","RECORD","Wind_spd_WVc(1)","Wind_spd_WVc(2)","Air_Temp_Avg","Humidity_Avg","SW_upper_Wm2_Avg","Rain_Tot","Press_Avg","Issui_Tot","Depth_cm","SR50A_Raw","Quality","Ground_Temp_Avg(1)","Ground_Temp_Avg(2)","SW_lower_Wm2_Avg","Albedo_Avg","SWC_per(1)","SWC_per(2)","Period(1)","Period(2)"
"TS","RN","","","","","","","","","","","","","","","","","","",""
"","","WVc","WVc","Avg","Avg","Avg","Tot","Avg","Tot","Smp","Smp","Smp","Avg","Avg","Avg","Avg","Smp","Smp","Smp","Smp"
"2016-05-21 00:00:00",236365,0.255,196.1,9.18,100,0,0,869.675,0,-4.217,3.17,213,15.87,14.76,0.1970929,0,48.65,56.58,32.96,34.88
"2016-05-21 00:10:00",236366,0.416,209.8,9.25,100,0,0,869.5402,0,-5.284,3.179,182,15.81,14.78,0.5003303,0,48.65,56.64,32.96,34.9
"2016-05-21 00:20:00",236367,0.428,190,9.17,100,0,0,869.437,0,-5.182,3.179,186,15.78,14.78,0.4396839,0,48.59,56.64,32.95,34.9
"2016-05-21 00:30:00",236368,0.34,205.4,9.23,100,0,0,869.4286,0,-5.762,3.184,184,15.71,14.77,0.4548343,0,48.59,56.64,32.95,34.9
"2016-05-21 00:40:00",236369,0.158,203.5,9.25,100,0,0,869.4244,0,-0.707,3.135,334,15.67,14.76,0.4548326,0,48.59,56.64,32.95,34.9
"2016-05-21 00:50:00",236370,0.242,196.6,9.16,100,0,0,869.4286,0,-4.88,3.175,193,15.64,14.77,0.5382394,0,48.65,56.64,32.96,34.9
"2016-05-21 01:00:00",236371,0.163,196.3,9.08,100,0,0,869.4265,0,-5.722,3.185,180,15.61,14.78,0.4738045,0,48.59,56.58,32.95,34.88
"2016-05-21 01:10:00",236372,0.279,196,9.02,100,0,0,869.3232,0,-1.178,3.142,283,15.55,14.77,0.4396876,0,48.65,56.58,32.96,34.88
"2016-05-21 01:20:00",236373,0.48,195.2,8.61,100,0,0,869.1758,0,-0.165,3.132,348,15.48,14.77,0.299442,0,48.59,56.58,32.95,34.88
"2016-05-21 01:30:00",236374,0.247,122,9.1,100,0,0,869.1737,0,-5.437,3.178,188,15.49,14.78,1.046189,0,48.59,56.58,32.95,34.88
"2016-05-21 01:40:00",236375,0.766,51.18,10.03,96.2,0,0,868.9736,0,-4.823,3.17,192,15.41,14.78,1.709543,0,48.65,56.58,32.96,34.88
"2016-05-21 01:50:00",236376,0.833,30.61,10.23,99.9,0,0,868.923,0,-5.611,3.177,189,15.39,14.79,1.474564,0,48.59,56.58,32.95,34.88
"2016-05-21 02:00:00",236377,0.471,55.03,10.33,100,0,0,868.923,0,-5.326,3.173,189,15.32,14.79,1.220578,0,48.59,56.58,32.95,34.88
"2016-05-21 02:10:00",236378,0.09,110.3,9.81,99.1,0,0,868.923,0,-5.063,3.179,190,15.31,14.78,0.3373635,0,48.59,56.58,32.95,34.88
"2016-05-21 02:20:00",236379,0.382,194.1,8.78,100,0,0,868.9104,0,-4.474,3.174,190,15.25,14.79,0.01516113,0,48.59,56.58,32.95,34.88
"2016-05-21 02:30:00",236380,0.029,203.7,8.95,100,0,0,868.862,0,-4.395,3.173,197,15.2,14.83,0.4775705,0,48.59,56.58,32.95,34.88
"2016-05-21 02:40:00",236381,0.262,18.39,8.99,99.9,0,0,868.7693,0,-3.163,3.155,221,15.12,14.82,0.894524,0,48.65,56.52,32.96,34.87
"2016-05-21 02:50:00",236382,0.387,22.6,10.36,90.3,0,0,868.9104,0,-3.846,3.159,219,15.13,14.8,2.490294,0,48.65,56.52,32.96,34.87
"2016-05-21 03:00:00",236383,0.705,40.72,10.29,89.3,0,0,868.8557,0,-1.948,3.142,303,15.07,14.78,1.637522,0,48.59,56.52,32.95,34.87
"2016-05-21 03:10:00",236384,0.556,20.91,10.26,88.2,0,0,868.923,0,-1.643,3.139,293,15.06,14.73,1.406338,0,48.59,56.52,32.95,34.87
"2016-05-21 03:20:00",236385,0.48,25.19,10.07,91.5,0,0,868.923,0,-1.613,3.139,315,14.99,14.7,1.034827,0,48.59,56.52,32.95,34.87
"2016-05-21 03:30:00",236386,0.3,19.2,10.08,90.3,0,0,868.923,0,-2.419,3.146,277,14.95,14.69,1.080281,0,48.59,56.52,32.95,34.87
"2016-05-21 03:40:00",236387,0.358,22.81,10.25,86.6,0,0,868.923,0,-3.965,3.16,224,14.95,14.68,1.269766,0,48.59,56.52,32.95,34.87
"2016-05-21 03:50:00",236388,0.343,2.136,10.84,79.57,0,0,868.923,0,-3.733,3.157,221,14.85,14.7,1.811778,0,48.59,56.52,32.95,34.87
"2016-05-21 04:00:00",236389,0.547,175.4,10.15,83.6,0,0,868.8915,0,-3.253,3.154,256,14.86,14.72,0.3032217,0,48.59,56.52,32.95,34.87
"2016-05-21 04:10:00",236390,0.811,184.2,10.42,78.32,0,0,868.7925,0,-3.168,3.152,238,14.76,14.68,0.3828125,0,48.59,56.46,32.95,34.86
"2016-05-21 04:20:00",236391,0.641,178.4,10.42,76.09,0,0,868.7756,0,-1.788,3.139,283,14.76,14.66,0.07201122,0,48.65,56.46,32.96,34.86
"2016-05-21 04:30:00",236392,0.418,228.4,10.21,75.99,0,0,868.923,0,-1.535,3.137,298,14.69,14.64,0.06064068,0,48.65,56.52,32.96,34.87
"2016-05-21 04:40:00",236393,0.233,311.6,10.06,74.84,0,0,868.923,0,-4.348,3.168,219,14.67,14.58,0.01894993,0,48.65,56.46,32.96,34.86
"2016-05-21 04:50:00",236394,0.266,166.9,9.54,77.44,0.003930862,0,868.9104,0,-4.607,3.171,192,14.62,14.58,0.1629744,0.048,48.59,56.46,32.95,34.86
"2016-05-21 05:00:00",236395,0.327,167.6,10.02,70.7,2.786996,0,868.9083,0,-1.567,3.137,305,14.59,14.58,1.705551,0.775,48.65,56.46,32.96,34.86
"2016-05-21 05:10:00",236396,0.521,184.3,10.26,66.66,8.160759,0,868.8915,0,-0.619,3.126,308,14.58,14.62,2.224865,0.28,48.65,56.46,32.96,34.86
"2016-05-21 05:20:00",236397,0.22,202.2,10.34,66.43,14.29314,0,868.923,0,-1.65,3.139,301,14.51,14.61,2.406802,0.173,48.65,56.46,32.96,34.86
"2016-05-21 05:30:00",236398,0.076,30.21,10.05,67.77,21.10166,0,868.9189,0,-1.399,3.137,270,14.54,14.59,3.024613,0.143,48.59,56.46,32.95,34.86
"2016-05-21 05:40:00",236399,0.125,70.69,10.15,67.84,32.7022,0,868.923,0,-1.998,3.14,298,14.44,14.59,5.567888,0.168,48.59,56.46,32.95,34.86
"2016-05-21 05:50:00",236400,0.398,168,10.32,69.82,57.05609,0,868.923,0,-2.003,3.14,273,14.42,14.58,14.11521,0.254,48.59,56.46,32.95,34.86
"2016-05-21 06:00:00",236401,0.517,177.9,11.05,67.76,116.1147,0,868.923,0,-4.585,3.161,177,14.41,14.55,21.57488,0.202,48.59,56.41,32.95,34.84
"2016-05-21 06:10:00",236402,0.114,116.6,11.45,68.05,136.8098,0,868.923,0,-2.637,3.141,252,14.37,14.52,26.75207,0.207,48.59,56.46,32.95,34.86
"2016-05-21 06:20:00",236403,0.172,133.5,11.16,72.19,97.00244,0,869.0031,0,-3.644,3.151,216,14.32,14.47,29.11161,0.351,48.59,56.46,32.95,34.86
"2016-05-21 06:30:00",236404,0.201,159.6,11.44,71.29,95.69663,0,869.0452,0,-2.508,3.139,228,14.29,14.44,29.15476,0.352,48.65,56.46,32.96,34.86
"2016-05-21 06:40:00",236405,0.098,167.4,11.79,70.45,69.81513,0,869.1105,0,-3.405,3.144,230,14.28,14.39,29.98352,0.443,48.65,56.41,32.96,34.84
"2016-05-21 06:50:00",236406,0.351,347.6,11.85,69.98,154.7129,0,869.1758,0,-4.605,3.162,197,14.19,14.39,28.86894,0.206,48.65,56.41,32.96,34.84
"2016-05-21 07:00:00",236407,0.611,335.8,10.86,80.3,155.4667,0,869.1758,0,-4.661,3.164,191,14.16,14.41,31.32064,0.227,48.65,56.41,32.96,34.84
"2016-05-21 07:10:00",236408,0.336,344.2,11.42,77.43,96.58289,0,869.1631,0,-4.868,3.16,187,14.19,14.42,32.98041,0.364,48.65,56.41,32.96,34.84
"2016-05-21 07:20:00",236409,0.461,338.5,12.08,74.76,84.31644,0,869.1758,0,-2.454,3.139,275,14.19,14.41,31.32438,0.374,48.65,56.41,32.96,34.84
"2016-05-21 07:30:00",236410,0.708,352.8,11.24,85.5,95.57671,0,869.1758,0,-0.776,3.124,324,14.11,14.45,31.92691,0.34,48.65,56.41,32.96,34.84
"2016-05-21 07:40:00",236411,0.378,334.1,12.37,72.41,99.31442,0,869.1758,0,-1.326,3.118,312,14.03,14.43,38.97925,0.398,48.59,56.41,32.95,34.84
"2016-05-21 07:50:00",236412,0.27,334,13.55,69.36,446.5356,0,869.1758,0,-2.488,3.131,224,14.02,14.42,52.64435,0.148,48.65,56.41,32.96,34.84
"2016-05-21 08:00:00",236413,0.577,346.5,12.74,78.48,647.8961,0,869.1758,0,-1.198,3.121,260,14.04,14.32,82.06638,0.126,48.59,56.41,32.95,34.84
"2016-05-21 08:10:00",236414,0.774,345.4,12.9,78.28,685.3909,0,869.1686,0,-1.211,3.119,228,14.03,14.34,103.2651,0.151,48.59,56.41,32.95,34.84
"2016-05-21 08:20:00",236415,0.6,353.1,13.15,78.12,721.138,0,869.0931,0,-2.645,3.132,226,14.07,14.32,113.7194,0.158,48.59,56.35,32.95,34.83
"2016-05-21 08:30:00",236416,0.677,332.5,13.51,75.19,755.0782,0,868.9129,0,-4.78,3.149,181,14.02,14.27,122.2315,0.162,48.65,56.35,32.96,34.83
"2016-05-21 08:40:00",236417,0.554,353.6,14.05,71.91,781.8975,0,868.994,0,-5.553,3.154,173,13.98,14.25,126.3379,0.162,48.65,56.41,32.96,34.84
"2016-05-21 08:50:00",236418,0.499,335.4,14.28,69.89,806.3685,0,869.0715,0,-5.115,3.15,182,13.97,14.22,128.8143,0.16,48.59,56.35,32.95,34.83
"2016-05-21 09:00:00",236419,0.709,8.97,14.35,68.66,834.9725,0,868.9152,0,-1.723,3.116,237,13.97,14.17,133.3434,0.16,48.59,56.35,32.95,34.83
"2016-05-21 09:10:00",236420,0.645,19.01,14.6,67.47,864.0865,0,868.8308,0,-3.02,3.127,221,13.97,14.18,138.6994,0.161,48.65,56.35,32.96,34.83
"2016-05-21 09:20:00",236421,0.568,13.8,15.18,65.14,888.7986,0,868.8308,0,-1.115,3.104,276,13.97,14.14,143.5899,0.162,48.59,56.35,32.95,34.83
"2016-05-21 09:30:00",236422,0.458,354.8,15.66,62.79,915.531,0,868.8287,0,-2.335,3.114,236,13.96,14.14,147.7986,0.161,48.65,56.35,32.96,34.83
"2016-05-21 09:40:00",236423,0.511,337.7,16.18,60.12,933.8517,0,868.7108,0,-36.91,3.448,356,13.89,14.11,149.2647,0.16,48.59,56.35,32.95,34.83
"2016-05-21 09:50:00",236424,0.415,324,16.11,57.93,951.9052,0,868.5803,0,0.703,3.084,295,13.91,14.09,152.7347,0.16,48.59,56.35,32.95,34.83
"2016-05-21 10:00:00",236425,0.505,289.2,16.17,56.98,978.1254,0,868.5781,0,-3.705,3.125,192,13.89,14.06,158.2982,0.162,48.59,56.35,32.95,34.83
"2016-05-21 10:10:00",236426,0.741,288.9,16.11,53.74,1002.662,0,868.5744,0,-1.982,3.109,243,13.92,14.02,163.4679,0.163,48.59,56.35,32.95,34.83
"2016-05-21 10:20:00",236427,0.465,290.7,16.3,52.09,1016.625,0,868.5568,0,-4.613,3.132,206,13.97,13.96,167.7124,0.165,48.59,56.35,32.95,34.83
"2016-05-21 10:30:00",236428,0.439,304.9,16.8,49.44,1028.035,0,868.3558,0,0.109,3.085,305,13.95,13.95,169.1165,0.165,48.59,56.35,32.95,34.83
"2016-05-21 10:40:00",236429,0.705,344.6,17.07,47.86,1038.717,0,868.3049,0,-1.735,3.101,207,14.03,13.96,171.4097,0.165,48.54,56.35,32.93,34.83
"2016-05-21 10:50:00",236430,0.667,331,17.55,48.1,1048.744,0,868.0959,0,-1.128,3.093,243,14.12,13.99,173.0962,0.165,48.54,56.29,32.93,34.82
"2016-05-21 11:00:00",236431,0.585,343.7,17.85,47.76,1054.871,0,868.0723,0,-3.477,3.113,206,14.18,14.01,173.4646,0.164,48.54,56.29,32.93,34.82
"2016-05-21 11:10:00",236432,0.519,339.2,18.45,48.38,1058.726,0,868.0726,0,-3.357,3.11,224,14.25,13.96,174.9843,0.165,48.54,56.29,32.93,34.82
"2016-05-21 11:20:00",236433,0.581,306.1,18.46,47.46,1067.571,0,868.0551,0,-2.473,3.104,234,14.37,13.95,177.4265,0.166,48.48,56.29,32.92,34.82
"2016-05-21 11:30:00",236434,0.82,312.2,18.03,47.16,1073.494,0,868.0561,0,0.979,3.071,310,14.47,13.88,180.0186,0.168,48.54,56.29,32.93,34.82
"2016-05-21 11:40:00",236435,0.745,297.6,18.2,47.55,1069.604,0,867.8612,0,0.428,3.077,323,14.57,13.88,181.4411,0.17,48.54,56.29,32.93,34.82
"2016-05-21 11:50:00",236436,0.547,292.4,18.33,48.24,1070.023,0,867.8605,0,-2.23,3.097,253,14.68,13.88,182.0756,0.17,48.48,56.23,32.92,34.8
"2016-05-21 12:00:00",236437,0.859,309.1,18.9,45.37,1068.412,0,867.8162,0,-0.281,3.08,267,14.81,13.87,182.0039,0.17,48.48,56.23,32.92,34.8
"2016-05-21 12:10:00",236438,0.568,247.1,19.09,44.81,1057.895,0,867.8086,0,-1.862,3.091,232,14.93,13.86,181.9259,0.172,48.48,56.29,32.92,34.82
"2016-05-21 12:20:00",236439,0.842,285.1,18.92,41.29,1052.372,0,867.8168,0,-5.135,3.128,187,15.05,13.85,181.8739,0.173,48.48,56.23,32.92,34.8
"2016-05-21 12:30:00",236440,0.702,347,18.93,42.32,1055.527,0,867.802,0,-5.019,3.122,193,15.19,13.85,181.8574,0.172,48.43,56.23,32.9,34.8
"2016-05-21 12:40:00",236441,0.544,284.1,19.29,41.62,1039.191,0,867.8038,0,-4.323,3.115,183,15.29,13.86,178.74,0.172,48.43,56.23,32.9,34.8
"2016-05-21 12:50:00",236442,0.554,296.8,19.36,43.18,1026.773,0,867.7633,0,-3.48,3.105,219,15.45,13.86,175.1618,0.171,48.43,56.23,32.9,34.8
"2016-05-21 13:00:00",236443,0.626,307,19.32,43.48,1011.644,0,867.7792,0,-3.162,3.101,249,15.58,13.86,173.2087,0.171,48.43,56.23,32.9,34.8
"2016-05-21 13:10:00",236444,0.52,286.4,19.83,44.59,995.0551,0,867.7421,0,-3.901,3.11,221,15.71,13.86,170.1439,0.171,48.38,56.23,32.89,34.8
"2016-05-21 13:20:00",236445,0.418,260.9,19.77,45.71,982.0643,0,867.5973,0,-3.433,3.105,209,15.87,13.83,166.2728,0.169,48.32,56.23,32.88,34.8
"2016-05-21 13:30:00",236446,0.473,355.1,19.69,46.1,957.3686,0,867.56,0,-3.855,3.107,255,15.95,13.82,161.5371,0.169,48.32,56.23,32.88,34.8
"2016-05-21 13:40:00",236447,0.697,270.7,19.49,47.86,938.4572,0,867.561,0,-6.014,3.132,191,16.11,13.82,159.9377,0.17,48.32,56.23,32.88,34.8
"2016-05-21 13:50:00",236448,0.573,259.2,18.97,50.67,915.4749,0,867.5569,0,-3.562,3.109,211,16.23,13.82,156.6618,0.171,48.27,56.23,32.86,34.8
"2016-05-21 14:00:00",236449,0.377,289.3,19.3,50.43,891.3347,0,867.5604,0,-6.395,3.135,188,16.33,13.79,151.8152,0.17,48.27,56.18,32.86,34.79
"2016-05-21 14:10:00",236450,0.529,298.6,19.02,50.44,862.9465,0,867.3391,0,-5.2,3.126,191,16.47,13.79,143.8921,0.167,48.27,56.23,32.86,34.8
"2016-05-21 14:20:00",236451,0.443,288.5,19.32,51.94,829.5253,0,867.3187,0,-5.082,3.123,197,16.57,13.8,136.032,0.164,48.21,56.18,32.85,34.79
"2016-05-21 14:30:00",236452,0.616,265.5,18.81,53.94,798.4313,0,867.3184,0,-1.947,3.095,335,16.65,13.85,125.739,0.157,48.21,56.18,32.85,34.79
"2016-05-21 14:40:00",236453,0.464,281.8,18.58,54.48,767.762,0,867.3167,0,-5.563,3.129,195,16.78,13.9,111.2031,0.145,48.21,56.18,32.85,34.79
"2016-05-21 14:50:00",236454,0.546,310.5,18.28,55.51,736.2421,0,867.3141,0,-3.549,3.113,229,16.88,13.92,89.63578,0.122,48.16,56.18,32.84,34.79
"2016-05-21 15:00:00",236455,0.452,293.5,18.52,55.8,706.3206,0,867.3068,0,-4.423,3.124,212,16.96,13.92,66.40675,0.094,48.16,56.18,32.84,34.79
"2016-05-21 15:10:00",236456,0.444,248.1,18.15,57.69,450.2682,0,867.3118,0,-4.823,3.126,204,17.07,13.91,38.94664,0.113,48.16,56.12,32.84,34.78
"2016-05-21 15:20:00",236457,0.384,253.3,17.92,58.55,198.8983,0,867.3141,0,-4.146,3.122,195,17.14,13.93,30.39303,0.157,48.11,56.12,32.82,34.78
"2016-05-21 15:30:00",236458,0.475,265.6,17.55,59.28,136.181,0,867.3167,0,-2.708,3.109,235,17.25,13.97,25.31685,0.187,48.11,56.12,32.82,34.78
"2016-05-21 15:40:00",236459,0.351,291.1,17.3,59.73,124.6929,0,867.3273,0,-3.311,3.116,199,17.34,14.03,22.84314,0.183,48.11,56.12,32.82,34.78
"2016-05-21 15:50:00",236460,0.374,195.8,17.22,60.55,119.2159,0,867.3146,0,-1.47,3.1,221,17.35,14.04,20.70278,0.174,48.11,56.12,32.82,34.78
"2016-05-21 16:00:00",236461,0.423,248,16.89,61.35,116.0335,0,867.3905,0,2.446,3.062,319,17.41,14.08,19.32764,0.167,48.05,56.12,32.81,34.78
"2016-05-21 16:10:00",236462,0.465,222.9,16.89,61.69,110.8001,0,867.382,0,0.013,3.087,270,17.5,14.1,18.13435,0.164,48.05,56.06,32.81,34.76
"2016-05-21 16:20:00",236463,0.373,348.2,16.68,61.08,108.376,0,867.3547,0,-5.034,3.136,197,17.54,14.14,16.35766,0.151,48.05,56.06,32.81,34.76
"2016-05-21 16:30:00",236464,0.358,229.8,16.49,62.73,106.2897,0,867.3146,0,-5.973,3.147,193,17.59,14.14,15.62274,0.148,48,56.06,32.8,34.76
"2016-05-21 16:40:00",236465,0.537,277.8,16.1,63.18,104.7928,0,867.3588,0,-3.927,3.129,196,17.62,14.15,13.02021,0.125,48,56.06,32.8,34.76
"2016-05-21 16:50:00",236466,0.238,255.8,15.98,63.96,90.32247,0,867.4453,0,-1.385,3.105,249,17.62,14.22,11.98981,0.133,47.95,56.06,32.78,34.76
"2016-05-21 17:00:00",236467,0.303,189.3,15.74,65.52,83.78471,0,867.4579,0,1.075,3.082,267,17.62,14.23,11.03138,0.132,48,56.06,32.8,34.76
"2016-05-21 17:10:00",236468,0.201,198.6,15.66,66.84,76.50191,0,867.5,0,1.087,3.083,329,17.62,14.24,9.842056,0.129,47.95,56,32.78,34.75
"2016-05-21 17:20:00",236469,0.245,171.8,15.36,67.74,68.73633,0,867.5547,0,1.485,3.08,346,17.66,14.28,8.527771,0.124,47.95,56,32.78,34.75
"2016-05-21 17:30:00",236470,0.317,197.2,15.14,69.1,62.69978,0,867.5674,0,1.978,3.077,302,17.69,14.36,7.861323,0.125,47.95,56,32.78,34.75
"2016-05-21 17:40:00",236471,0.093,170.6,14.83,69.53,53.37738,0,867.5838,0,2.123,3.076,299,17.72,14.37,6.596159,0.124,47.89,56,32.77,34.75
"2016-05-21 17:50:00",236472,0.202,185.3,14.69,70,45.37443,0,867.7154,0,1.995,3.08,276,17.74,14.36,5.501376,0.121,47.89,56,32.77,34.75
"2016-05-21 18:00:00",236473,0.196,185.3,14.24,71.86,36.63999,0,867.6171,0,1.953,3.082,265,17.69,14.37,4.61112,0.126,47.89,56.06,32.77,34.76
"2016-05-21 18:10:00",236474,0.096,180.1,13.99,72.28,27.6186,0,867.7559,0,1.143,3.091,244,17.7,14.52,3.599617,0.131,47.89,56,32.77,34.75
"2016-05-21 18:20:00",236475,0.144,206.9,13.83,72.32,20.25088,0,867.9109,0,-1.485,3.118,216,17.65,14.52,2.841892,0.14,47.84,55.95,32.76,34.74
"2016-05-21 18:30:00",236476,0.056,183.7,13.46,73.54,12.72954,0,868.0646,0,-1.298,3.118,229,17.64,14.53,1.788572,0.14,47.84,55.95,32.76,34.74
"2016-05-21 18:40:00",236477,0.004,176.8,13.13,75.01,6.249027,0,868.0139,0,-1.595,3.123,212,17.64,14.59,0.8602087,0.136,47.84,56,32.76,34.75
"2016-05-21 18:50:00",236478,0,0,12.77,75.34,1.355937,0,868.1312,0,-1.017,3.119,225,17.59,14.67,0.2160022,0.104,47.84,55.95,32.76,34.74
"2016-05-21 19:00:00",236479,0,0,12.6,75.72,0,0,868.176,0,-0.614,3.116,218,17.6,14.69,0,0,47.84,56,32.76,34.75
"2016-05-21 19:10:00",236480,0,0,12.25,77.25,0,0,868.2592,0,-0.624,3.118,230,17.55,14.67,0,0,47.84,56,32.76,34.75
"2016-05-21 19:20:00",236481,0.041,161.4,11.74,81.1,0,0,868.4154,0,-0.003,3.115,233,17.53,14.65,0,0,47.84,56,32.76,34.75
"2016-05-21 19:30:00",236482,0.084,192.4,11.36,84.4,0,0,868.4176,0,0.779,3.109,252,17.44,14.64,0,0,47.79,55.95,32.74,34.74
"2016-05-21 19:40:00",236483,0.224,188.1,10.95,88.1,0,0,868.4176,0,1.506,3.104,258,17.42,14.76,0,0,47.89,55.95,32.77,34.74
"2016-05-21 19:50:00",236484,0.137,206.9,11,86.6,0,0,868.485,0,0.875,3.109,255,17.37,14.8,0.2501097,0,47.73,55.95,32.73,34.74
"2016-05-21 20:00:00",236485,0.047,188,10.7,87.8,0,0,868.6577,0,2.52,3.095,314,17.27,14.8,0.07200127,0,47.79,55.95,32.74,34.74
"2016-05-21 20:10:00",236486,0.215,187.8,10.52,90.1,0,0,868.7335,0,3.809,3.084,366,17.27,14.79,0.140213,0,47.73,55.95,32.73,34.74
"2016-05-21 20:20:00",236487,0.302,187.5,10.36,91.8,0,0,868.9252,0,318,0,0,17.19,14.78,0.231162,0,47.73,55.89,32.73,34.72
"2016-05-21 20:30:00",236488,0.412,187,10.08,97.9,0,0,868.9904,0,3.439,3.09,532,17.14,14.86,0.01515816,0,47.73,55.89,32.73,34.72
"2016-05-21 20:40:00",236489,0.258,181.5,9.87,98.6,0,0,869.1273,0,-2.698,3.151,216,17.11,14.88,0.01136862,0,47.73,55.89,32.73,34.72
"2016-05-21 20:50:00",236490,0.126,203.9,10.02,95.5,0,0,869.1822,0,318,0,0,17.04,14.88,0.4699031,0,47.73,55.89,32.73,34.72
"2016-05-21 21:00:00",236491,0.055,210.1,10.32,89.4,0,0,869.2811,0,-3.005,3.154,210,16.97,14.88,0.7313814,0,47.73,55.89,32.73,34.72
"2016-05-21 21:10:00",236492,0.387,194.7,9.73,97.9,0,0,869.1843,0,-3.362,3.158,204,16.96,14.89,0.05305427,0,47.73,55.89,32.73,34.72
"2016-05-21 21:20:00",236493,0.176,193.9,9.65,98.8,0,0,869.3801,0,-4.486,3.17,193,16.87,14.89,0.2614811,0,47.73,55.89,32.73,34.72
"2016-05-21 21:30:00",236494,0.094,193.5,9.77,97.7,0,0,869.4033,0,-4.817,3.171,191,16.83,14.91,0.4396117,0,47.73,55.83,32.73,34.71
"2016-05-21 21:40:00",236495,0.174,153.3,9.73,94.9,0,0,869.4286,0,-4.301,3.171,199,16.81,14.97,0.511623,0,47.73,55.83,32.73,34.71
"2016-05-21 21:50:00",236496,0.022,137.5,9.27,99.7,0,0,869.4286,0,-4.272,3.167,197,16.72,14.98,0.3411008,0,47.73,55.83,32.73,34.71
"2016-05-21 22:00:00",236497,0.147,153.2,9.41,96.8,0,0,869.4517,0,-4.49,3.173,186,16.7,14.98,0.4623871,0,47.73,55.83,32.73,34.71
"2016-05-21 22:10:00",236498,0.326,173.2,8.94,100,0,0,869.4286,0,-4.269,3.172,196,16.67,15,0.01516049,0,47.68,55.83,32.71,34.71
"2016-05-21 22:20:00",236499,0.182,222.1,9.12,99.8,0,0,869.4286,0,-4.238,3.167,201,16.63,15.04,0.6216202,0,47.73,55.83,32.73,34.71
"2016-05-21 22:30:00",236500,0.057,272.1,9.34,96.8,0,0,869.4286,0,-4.477,3.17,181,16.58,15.04,0.5989007,0,47.73,55.83,32.73,34.71
"2016-05-21 22:40:00",236501,0.262,176.2,9.03,98.4,0,0,869.4222,0,-4.493,3.174,187,16.53,15.06,0.2463936,0,47.68,55.77,32.71,34.7
"2016-05-21 22:50:00",236502,0.022,176.6,9.06,100,0,0,869.418,0,-4.389,3.171,203,16.47,15.06,0.5003847,0,47.73,55.77,32.73,34.7
"2016-05-21 23:00:00",236503,0.181,191.7,9.03,98.6,0,0,869.4054,0,-4.347,3.174,197,16.44,15.06,0.5231332,0,47.68,55.77,32.71,34.7
"2016-05-21 23:10:00",236504,0.074,99.5,8.67,100,0,0,869.2264,0,-4.444,3.173,202,16.37,15.07,0.3715018,0,47.73,55.77,32.73,34.7
"2016-05-21 23:20:00",236505,0.262,199.8,8.66,100,0,0,869.1948,0,-4.087,3.169,194,16.35,15.07,0.3790836,0,47.73,55.77,32.73,34.7
"2016-05-21 23:30:00",236506,0.128,203.2,9.21,95.4,0,0,869.1843,0,-4.038,3.169,201,16.29,15.07,0.9704542,0,47.68,55.77,32.71,34.7
"2016-05-21 23:40:00",236507,0.367,196.6,9.08,97.7,0,0,869.1779,0,-3.887,3.168,205,16.21,15.07,0.5762071,0,47.68,55.77,32.71,34.7
"2016-05-21 23:50:00",236508,0.111,228.7,8.89,99.6,0,0,869.2664,0,-3.277,3.162,204,16.19,15.07,0.2388227,0,47.68,55.77,32.71,34.7
